| time (UTC) | temp C | wind direction | speed KPH | gust KPH | rain 1hr cm | rain 24hr cm | rain mn cm | humidity % | barometer mb |
| 20260505063018 | 10 | 0.0 | 11.3 | 0.00 | 0.99 | 0.03 | 74 | 1028.0 | |
| 20260505060017 | 10 | 270 | 1.6 | 9.7 | 0.00 | 1.04 | 0.03 | 75 | 1027.9 |
| 20260505053018 | 11 | 270 | 3.2 | 9.7 | 0.00 | 1.04 | 0.03 | 74 | 1028.1 |
| 20260505040019 | 13 | 293 | 1.6 | 8.0 | 0.00 | 1.04 | 0.03 | 64 | 1028.4 |
| 20260505033017 | 14 | 113 | 1.6 | 8.0 | 0.00 | 1.04 | 0.03 | 63 | 1028.5 |
| 20260505030017 | 13 | 293 | 3.2 | 9.7 | 0.00 | 1.04 | 0.03 | 65 | 1028.7 |
| 20260505023036 | 13 | 315 | 3.2 | 11.3 | 0.00 | 1.04 | 0.03 | 64 | 1029.0 |
| 20260505020017 | 13 | 270 | 3.2 | 11.3 | 0.00 | 1.04 | 0.03 | 72 | 1029.6 |
| 20260505013016 | 12 | 270 | 3.2 | 12.9 | 0.00 | 1.04 | 0.03 | 72 | 1030.0 |
| 20260505010019 | 11 | 270 | 3.2 | 12.9 | 0.00 | 1.07 | 0.03 | 76 | 1029.6 |
| 20260505003017 | 11 | 270 | 3.2 | 11.3 | 0.00 | 1.12 | 0.03 | 78 | 1029.6 |
| 20260505000017 | 11 | 270 | 3.2 | 11.3 | 0.00 | 1.17 | 0.03 | 80 | 1028.9 |
| 20260504233016 | 10 | 270 | 3.2 | 9.7 | 0.00 | 1.27 | 0.03 | 84 | 1028.7 |
| 20260504230017 | 10 | 270 | 3.2 | 14.5 | 0.00 | 1.37 | 0.03 | 85 | 1028.2 |
| 20260504223057 | 9 | 270 | 3.2 | 12.9 | 0.00 | 1.52 | 0.03 | 87 | 1027.8 |
| 20260504220038 | 8 | 270 | 1.6 | 11.3 | 0.00 | 1.65 | 0.03 | 91 | 1027.1 |
| 20260504213016 | 7 | 270 | 1.6 | 12.9 | 0.00 | 1.78 | 0.03 | 92 | 1026.7 |
| 20260504210016 | 6 | 270 | 1.6 | 20.9 | 0.00 | 1.91 | 0.03 | 91 | 1026.6 |
| 20260504203019 | 6 | 158 | 1.6 | 17.7 | 0.00 | 2.08 | 0.03 | 90 | 1026.4 |
| 20260504200039 | 6 | 248 | 1.6 | 11.3 | 0.00 | 2.29 | 0.03 | 89 | 1026.3 |
| 20260504193018 | 6 | 0.0 | 11.3 | 0.00 | 2.46 | 0.03 | 89 | 1025.9 | |
| 20260504190018 | 6 | 0.0 | 11.3 | 0.00 | 2.62 | 0.03 | 88 | 1025.9 | |
| 20260504183018 | 6 | 0.0 | 4.8 | 0.00 | 2.72 | 0.03 | 88 | 1026.0 | |
| 20260504180018 | 6 | 0.0 | 9.7 | 0.00 | 2.82 | 0.03 | 88 | 1026.0 | |
| 20260504173018 | 6 | 158 | 1.6 | 9.7 | 0.00 | 2.92 | 0.03 | 89 | 1025.9 |